Вернуться в каталог

STARLINK-30426

АктивенСвязьVLEO
NORAD 57848·PAYLOAD·🇺🇸 United States

Запущен Sep 12, 2023 с Vandenberg Space Force Base

Loading…

Ближайшие Пролёты (ближайшие 24 часа)

TLE

СвежийSource: CelesTrak SupGP

Эпоха: Sep 14, 2026, 15:11 UTC

1 57848C 23141J   26257.63312500  .00031632  00000+0  93420-3 0  2577
2 57848  53.1573 125.1814 0001229 101.0796 172.3006 15.34386930    10

Отслеживайте STARLINK-30426 в реальном времени с AllMySat

Download on the App Store